Kodiak, AK

7:57 PM AKST on February 23, 2018 (GMT -0900)
Kodiak

Weather History for PADQ - November, 2012

Change the Weather History Date:

Thursday, November 1, 2012

  Actual Average Record
Temperature  
Mean Temperature 31 °F 36 °F  
Max Temperature 41 °F 42 °F 60 °F (1929)
Min Temperature 20 °F 31 °F 10 °F (1975)
Degree Days  
Heating Degree Days 34 29  
Month to date heating degree days 34 29  
Since 1 July heating degree days 2048 1891  
Cooling Degree Days 0 0  
Month to date cooling degree days 0 0  
Year to date cooling degree days 0 1  
Moisture  
Dew Point 28 °F    
Average Humidity 0    
Maximum Humidity 0    
Minimum Humidity 0    
Precipitation  
Precipitation 0.11 in 0.24 in 2.84 in (1991)
Month to date precipitation 0.11 0.24  
Year to date precipitation 47.87 62.64  
Snow  
Snow 0.30 in 0.10 in 14.00 in (1965)
Month to date snowfall 0.3 0.1  
Since 1 July snowfall 0.7 1.2  
Since 1 September snowfall 0.7 1.2  
Snow Depth 0.00 in    
Sea Level Pressure  
Sea Level Pressure 29.49 in    
Wind  
Wind Speed 21 mph (North)    
Max Wind Speed 45 mph    
Max Gust Speed 59 mph    
Visibility 9 miles    
Events Rain , Snow    
T = Trace of Precipitation, MM = Missing Value Source: NWS Daily Summary

Daily Weather History Graph

Daily Weather History Graph

Search for Another Location

Airport or City:

Trip Planner

Search our weather history database for the weather conditions in past years. The results will help you decide how hot, cold, wet, or windy it might be!

Date:

Astronomy

Nov. 01, 2012 Rise Set
Actual Time 9:24 AM AKDT 6:21 PM AKDT
Civil Twilight 8:42 AM AKDT 7:03 PM AKDT
Nautical Twilight 7:56 AM AKDT 7:49 PM AKDT
Astronomical Twilight 7:11 AM AKDT 8:34 PM AKDT
Moon 7:56 PM AKDT (11/1) 12:36 PM AKDT (11/1)
Length of Visible Light 10h 20m
Length of Day
8h 56m
Waning Gibbous, 92% of the Moon is Illuminated
Nov 1
Waning Gibbous
Nov 6
Last Quarter
Nov 13
New
Nov 20
First Quarter
Nov 28
Full

Hourly Weather History & Observations

Time (AKDT) Temp. Windchill Dew Point Humidity Pressure Visibility Wind Dir Wind Speed Gust Speed Precip Events Conditions
12:53 AM 28.0 °F 19.3 °F 21.0 °F 75% 29.53 in 10.0 mi WNW 9.2 mph - 0.00 in   Mostly Cloudy
1:53 AM 27.0 °F 19.5 °F 21.9 °F 81% 29.55 in 10.0 mi WNW 6.9 mph - N/A   Mostly Cloudy
2:53 AM 26.1 °F 16.8 °F 21.0 °F 81% 29.55 in 10.0 mi NW 9.2 mph - N/A   Scattered Clouds
3:53 AM 25.0 °F 20.7 °F 19.9 °F 81% 29.56 in 10.0 mi West 3.5 mph - N/A   Scattered Clouds
4:53 AM 24.1 °F 18.2 °F 19.9 °F 84% 29.56 in 10.0 mi NW 4.6 mph - N/A   Partly Cloudy
5:53 AM 26.1 °F 17.6 °F 21.9 °F 84% 29.55 in 10.0 mi NW 8.1 mph - N/A   Partly Cloudy
6:53 AM 28.0 °F 19.3 °F 23.0 °F 81% 29.55 in 10.0 mi NW 9.2 mph - N/A   Mostly Cloudy
7:53 AM 28.9 °F 20.4 °F 23.0 °F 78% 29.56 in 10.0 mi NW 9.2 mph - N/A   Mostly Cloudy
8:53 AM 30.0 °F 22.4 °F 23.0 °F 75% 29.55 in 10.0 mi NW 8.1 mph - N/A   Overcast
9:27 AM 35.6 °F 25.9 °F 21.2 °F 56% 29.55 in 10.0 mi NNE 16.1 mph - N/A   Overcast
9:53 AM 36.0 °F 25.6 °F 24.1 °F 62% 29.55 in 10.0 mi NNE 18.4 mph 24.2 mph N/A   Overcast
10:53 AM 37.0 °F 27.0 °F 23.0 °F 57% 29.56 in 10.0 mi NNE 18.4 mph 25.3 mph 0.00 in Snow Light Snow
11:26 AM 33.8 °F 22.5 °F 30.2 °F 87% 29.56 in 2.0 mi NE 19.6 mph - 0.00 in Snow Light Snow
11:53 AM 34.0 °F 26.0 °F 30.9 °F 89% 29.56 in 2.0 mi NE 10.4 mph - 0.00 in Snow Light Snow
12:16 PM 35.6 °F 28.0 °F 32.0 °F 87% 29.54 in 8.0 mi North 10.4 mph - 0.03 in Snow Light Snow
12:53 PM 37.9 °F 27.6 °F 28.9 °F 70% 29.55 in 9.0 mi NNE 20.7 mph - 0.03 in   Overcast
1:53 PM 37.9 °F 27.3 °F 30.0 °F 73% 29.52 in 10.0 mi NNE 21.9 mph 28.8 mph N/A   Overcast
2:53 PM 37.0 °F 25.9 °F 32.0 °F 82% 29.51 in 6.0 mi NNE 23.0 mph 36.8 mph 0.00 in Rain , Snow Light Rain
3:53 PM 39.0 °F 27.6 °F 30.0 °F 70% 29.49 in 10.0 mi NNE 27.6 mph 38.0 mph 0.00 in Rain Light Rain
4:53 PM 37.9 °F 25.9 °F 30.9 °F 76% 29.46 in 8.0 mi NE 28.8 mph 39.1 mph 0.01 in Rain , Snow Light Rain
5:53 PM 37.9 °F 25.3 °F 34.0 °F 86% 29.45 in 8.0 mi NNE 32.2 mph 41.4 mph 0.00 in Rain , Snow Light Rain
6:53 PM 39.9 °F 27.5 °F 32.0 °F 73% 29.42 in 10.0 mi NE 35.7 mph 44.9 mph 0.00 in Rain Light Rain
7:53 PM 39.0 °F 26.6 °F 34.0 °F 82% 29.40 in 6.0 mi NNE 33.4 mph 48.3 mph 0.02 in Rain Light Rain
8:53 PM 39.0 °F 26.6 °F 35.1 °F 86% 29.38 in 7.0 mi NNE 33.4 mph 48.3 mph 0.01 in Rain Light Rain
9:53 PM 39.9 °F 27.6 °F 36.0 °F 86% 29.34 in 10.0 mi NNE 34.5 mph 47.2 mph 0.03 in Rain Light Rain
10:53 PM 39.9 °F 28.2 °F 37.0 °F 89% 29.31 in 10.0 mi NNE 31.1 mph 46.0 mph 0.00 in Rain Light Rain
11:53 PM 39.9 °F 27.6 °F 36.0 °F 86% 29.28 in 10.0 mi NNE 34.5 mph 55.2 mph 0.00 in Rain Light Rain